deb Transtage 4

Debris
NORAD ID: 1829 Int'l Des: 1965-082 Owner: AFSSD Country: US
LEOCIRCULAR

About deb Transtage 4

Description loading...

Live Position

Loading 3D Globe...

Upcoming Passes

Altitude History

Altitude vs Time

uPlot chart will show altitude changes over time

Two-Line Element Set

1 01829U 65082DU 25340.86128798 .00004697 00000-0 49002-3 0 9998
2 01829 32.2901 33.7592 0024138 79.1845 281.1526 14.88355076191834
Epoch: Dec 6, 2025 • Age: 21 hours

Current Status

Altitude 626.3 km
Velocity 7.54 km/s
Sub-Earth Point -31.04°S, 18.52°W
Type debris

Large Constellations

Loading constellations...